[[{"header":{"parameterUnit":"m.s-1","parameterCategory":1,"la1":30.2991,"la2":30.254,"lo1":-89.0895,"lo2":-89.0444,"dy":0.0017,"dx":0.0017,"nx":28,"ny":28,"refTime":"2024-07-14T09:00:00:Z","depth":0,"parameterNumber":2,"parameterNumberName":"U-component_of_WINDS"},"data":[0,0,0,0,0,0,0,0,0,0,0,0,0,0,0,0,0,0,0,0,0,0,0,0,0,0,0,0,0,0,0,0,0,0,0,0,0,0,0,0,0,0,0,0,0,0,0,0,0,0,0,0,0,0,0,0,0,0,2.2253,2.2254,0,2.2293,2.2293,2.2294,2.2226,2.2224,2.2222,2.222,2.2259,2.2262,2.2266,0,0,0,0,0,0,0,0,0,0,0,0,0,2.2119,2.2122,2.2253,2.2254,2.2254,2.2293,2.2293,2.2294,2.2227,2.2224,2.2221,2.2218,2.2258,2.2262,2.2266,0,0,0,0,0,0,0,0,0,0,0,0,0,2.217,2.2123,2.2253,2.2225,2.2223,2.2293,2.2293,2.2294,2.2227,2.2224,2.222,2.2217,2.2257,2.2262,2.2266,2.2364,0,0,2.2281,2.2283,0,0,0,0,0,0,0,0,2.2167,2.2175,2.2229,2.2227,2.2225,2.2251,2.2261,2.2318,2.2228,2.2226,2.2219,2.2216,2.2259,2.2264,2.2279,2.2366,2.2368,2.2281,2.2284,2.2286,2.2288,0,0,0,0,0,0,0,2.2164,2.2173,2.2269,2.223,2.2228,2.2211,2.2214,2.2271,2.2261,2.2226,2.2221,2.2227,2.2258,2.2274,2.2279,2.2369,2.2281,2.2286,2.2288,2.229,2.2539,2.2542,0,0,0,0,0,0,2.2164,2.2171,2.2268,2.227,2.2187,2.2216,2.222,2.2246,2.226,2.2259,2.2229,2.2223,2.2268,2.2274,2.228,2.2396,2.2286,2.2291,2.2294,2.2535,2.2539,2.2543,0,0,0,0,0,0,2.2161,2.2173,2.2266,2.2219,2.223,2.2222,2.2252,2.2249,2.2265,2.2263,2.2261,2.2248,2.2265,2.2273,2.2344,2.2396,2.2293,2.2297,2.2531,2.2536,2.2541,2.2628,0,0,0,0,0,0,2.2158,2.2173,2.221,2.222,2.2232,2.233,2.2255,2.2252,2.2274,2.2266,2.228,2.2279,2.2263,2.2337,2.2349,2.2401,2.2301,2.2526,2.2533,2.254,2.262,2.2636,2.2649,0,0,0,0,0,2.2153,2.2232,2.2212,2.2224,2.2279,2.2333,2.234,2.2319,2.2278,2.2316,2.2314,2.2279,2.2389,2.2345,2.2357,2.2412,2.2522,2.2531,2.2539,2.2614,2.2633,2.2648,0,0,0,0,0,0,2.2228,2.2233,2.2211,2.2296,2.2314,2.2321,2.2368,2.234,2.237,2.2362,2.2336,2.2339,2.2415,2.2421,2.2372,2.2507,2.2449,2.246,2.2501,2.2519,2.2533,2.253,2.2305,0,0,0,0,0,2.2254,2.2298,2.23,2.2375,2.2385,2.2375,2.2398,2.2381,2.2399,2.2406,2.241,2.2429,2.2468,2.2494,2.2529,2.2621,2.2623,2.2664,2.2679,2.269,2.27,2.2749,2.2767,2.2571,2.2571,2.2571,0,0,2.2309,2.2318,2.2347,2.239,2.2403,2.2448,2.2382,2.2433,2.2466,2.2414,2.2481,2.2485,2.2504,2.2585,2.2621,2.2592,2.2755,2.2701,2.271,2.2714,2.2759,2.2778,2.2795,2.2577,2.2576,2.2575,0,0,2.2432,2.2443,2.2507,2.2521,2.254,2.2533,2.2549,2.256,2.256,2.2627,2.2589,2.2628,2.2695,2.2711,2.2727,2.2857,2.2825,2.2869,2.2944,2.2992,2.3007,2.3021,2.3067,2.3083,2.2879,2.288,2.288,0,2.2498,2.2565,2.2543,2.2597,2.2617,2.2572,2.2636,2.2651,2.2681,2.2696,2.2663,2.2746,2.2756,2.284,2.2872,2.2887,2.2904,2.2867,2.3007,2.302,2.3032,2.3076,2.3093,2.2885,2.2884,2.2884,2.2883,0,2.2645,2.2692,2.2741,2.2772,2.2797,2.2856,2.2843,2.2872,2.2853,2.2849,2.2918,2.2928,2.2965,2.2984,2.2966,2.3066,2.3047,2.3011,2.2951,2.3057,2.3097,2.3114,2.2892,2.289,2.2889,2.2887,0,0,2.2815,2.2833,2.2851,2.2865,2.2884,2.292,2.2977,2.3013,2.3038,2.3061,2.3107,2.3166,2.3133,2.3151,2.3135,2.3177,2.3279,2.3135,2.3135,2.3161,2.339,2.3416,2.3436,2.3258,2.3262,2.3264,2.3388,0,2.2937,2.3035,2.3017,2.3112,2.3156,2.3114,2.3163,2.318,2.3179,2.3215,2.3213,2.3255,2.3208,2.3219,2.3259,2.3258,2.3324,2.3249,2.3301,2.3303,2.3297,2.3457,2.3486,2.3602,2.3404,2.3406,2.3408,0,2.3092,2.3121,2.3221,2.3233,2.3251,2.3296,2.3327,2.3363,2.3381,2.3377,2.3399,2.3374,2.3431,2.3371,2.3448,2.3397,2.3418,2.3421,2.3425,2.3428,2.3362,2.3465,2.3639,2.3656,2.3433,2.3431,2.3429,0,2.3206,2.327,2.3338,2.3351,2.3367,2.3399,2.3408,2.3423,2.3446,2.3474,2.3488,2.3523,2.3541,2.3568,2.3554,2.3512,2.3633,2.3572,2.3631,2.3632,2.3658,2.3656,2.3837,2.3672,2.3672,2.3672,2.3672,0,2.3344,2.3407,2.3389,2.3431,2.35,2.3479,2.3548,2.3551,2.3565,2.3606,2.3573,2.3612,2.3591,2.3629,2.3618,2.3684,2.3692,2.369,2.3686,2.3693,2.3693,2.3705,2.3697,2.3676,2.3675,2.3675,2.3674,0,2.3483,2.3474,2.3545,2.3555,2.3559,2.3609,2.3617,2.3656,2.3652,2.3705,2.3716,2.371,2.3753,2.3741,2.3788,2.3781,2.3863,2.3849,2.3857,2.3854,2.3913,2.3907,2.4107,2.4132,2.3952,2.3954,2.3955,0,2.3571,2.3618,2.3633,2.3659,2.367,2.3711,2.3735,2.3716,2.3742,2.3767,2.3803,2.3843,2.3874,2.3945,2.3944,2.398,2.3966,2.4034,2.3971,2.3976,2.3967,2.3964,2.3968,2.4046,2.4048,2.405,2.4051,0,2.3729,2.3722,2.3757,2.3792,2.3821,2.3847,2.3869,2.3892,2.3875,2.3906,2.395,2.3974,2.4022,2.4062,2.4095,2.4102,2.4074,2.4071,2.4086,2.4093,2.4096,2.4095,2.3891,2.4066,2.4065,2.4064,2.4063,2.4062,2.3845,2.3885,2.3902,2.3942,2.3957,2.398,2.4017,2.4018,2.4054,2.4092,2.4078,2.4129,2.4146,2.4187,2.4199,2.4238,2.4212,2.4234,2.424,2.4246,2.4253,2.409,2.4244,2.4243,2.4243,2.4242,2.4242,0,2.4001,2.4009,2.4047,2.408,2.4112,2.4083,2.4107,2.4135,2.418,2.4199,2.423,2.4281,2.432,2.4322,2.4359,2.4389,2.4377,2.44,2.4397,2.4399,2.4274,2.4257,2.4409,2.4409,2.4409,2.4409,2.4409,2.4409,2.4085,2.4152,2.4147,2.4221,2.4229,2.4278,2.4294,2.4314,2.4329,2.4387,2.4419,2.4421,2.4433,2.447,2.4505,2.4505,2.4519,2.4547,2.4542,2.4425,2.4408,2.4392,2.4376,2.455,2.455,2.4663,2.4664,2.4665]},{"header":{"parameterUnit":"m.s-1","parameterCategory":1,"la1":30.2991,"la2":30.254,"lo1":-89.0895,"lo2":-89.0444,"dy":0.0017,"dx":0.0017,"nx":28,"ny":28,"refTime":"2024-07-14T09:00:00:Z","depth":0,"parameterNumber":3,"parameterNumberName":"V-component_of_WINDS"},"data":[0,0,0,0,0,0,0,0,0,0,0,0,0,0,0,0,0,0,0,0,0,0,0,0,0,0,0,0,0,0,0,0,0,0,0,0,0,0,0,0,0,0,0,0,0,0,0,0,0,0,0,0,0,0,0,0,0,0,-0.8288,-0.8287,0,-0.821,-0.8209,-0.8208,-0.8176,-0.8176,-0.8176,-0.8176,-0.8094,-0.8091,-0.8089,0,0,0,0,0,0,0,0,0,0,0,0,0,-0.8406,-0.8404,-0.8288,-0.8287,-0.8286,-0.821,-0.8209,-0.8208,-0.8176,-0.8176,-0.8176,-0.8176,-0.8094,-0.8092,-0.8089,0,0,0,0,0,0,0,0,0,0,0,0,0,-0.8344,-0.8403,-0.8288,-0.8261,-0.8258,-0.8211,-0.8209,-0.8208,-0.8176,-0.8176,-0.8176,-0.8176,-0.8095,-0.8092,-0.8088,-0.8062,0,0,-0.8078,-0.8076,0,0,0,0,0,0,0,0,-0.8348,-0.834,-0.8266,-0.8263,-0.8259,-0.8203,-0.822,-0.8159,-0.8176,-0.8207,-0.8176,-0.8177,-0.813,-0.8123,-0.8108,-0.8058,-0.8054,-0.8077,-0.8075,-0.8074,-0.8073,0,0,0,0,0,0,0,-0.8352,-0.8343,-0.8257,-0.8265,-0.8261,-0.8252,-0.8243,-0.8209,-0.8168,-0.8204,-0.8201,-0.8193,-0.8128,-0.8112,-0.8106,-0.8053,-0.8077,-0.8074,-0.8072,-0.8071,-0.7977,-0.7977,0,0,0,0,0,0,-0.8361,-0.8347,-0.826,-0.8255,-0.8305,-0.8249,-0.824,-0.8221,-0.8168,-0.816,-0.8193,-0.8192,-0.8117,-0.811,-0.8103,-0.8068,-0.8074,-0.807,-0.8068,-0.7978,-0.7977,-0.7977,0,0,0,0,0,0,-0.8364,-0.8354,-0.8263,-0.83,-0.8288,-0.8247,-0.8226,-0.8219,-0.8203,-0.8159,-0.8152,-0.8184,-0.8117,-0.8108,-0.8072,-0.8065,-0.8069,-0.8066,-0.7978,-0.7978,-0.7977,-0.7999,0,0,0,0,0,0,-0.8367,-0.8355,-0.8345,-0.83,-0.8286,-0.8234,-0.8225,-0.8217,-0.8197,-0.8195,-0.8149,-0.8142,-0.8117,-0.8078,-0.8069,-0.806,-0.8063,-0.7979,-0.7978,-0.7977,-0.7999,-0.7999,-0.8,0,0,0,0,0,-0.8372,-0.8353,-0.8345,-0.8334,-0.8273,-0.8234,-0.8226,-0.8198,-0.8197,-0.8186,-0.8158,-0.8143,-0.8067,-0.8075,-0.8064,-0.8054,-0.7979,-0.7978,-0.7977,-0.7998,-0.7999,-0.8,0,0,0,0,0,0,-0.8397,-0.8347,-0.8337,-0.8303,-0.8274,-0.8229,-0.8214,-0.82,-0.8169,-0.8168,-0.8134,-0.8124,-0.8092,-0.8069,-0.8078,-0.8026,-0.8022,-0.8019,-0.8042,-0.8042,-0.8042,-0.8048,-0.806,0,0,0,0,0,-0.8399,-0.8373,-0.833,-0.8305,-0.8291,-0.8255,-0.8237,-0.8219,-0.8186,-0.8173,-0.8142,-0.811,-0.8079,-0.8059,-0.8028,-0.7996,-0.7985,-0.7984,-0.7984,-0.7985,-0.7982,-0.7963,-0.7962,-0.7974,-0.7974,-0.7974,0,0,-0.8402,-0.8372,-0.8357,-0.8309,-0.8284,-0.8257,-0.8245,-0.8216,-0.8195,-0.8168,-0.8133,-0.811,-0.8072,-0.8038,-0.8021,-0.8018,-0.7977,-0.7984,-0.7984,-0.7982,-0.7962,-0.7961,-0.796,-0.7974,-0.7974,-0.7974,0,0,-0.8395,-0.8369,-0.8345,-0.8321,-0.8283,-0.8259,-0.8254,-0.8211,-0.8195,-0.816,-0.8139,-0.8113,-0.806,-0.8034,-0.8014,-0.7997,-0.7982,-0.7988,-0.799,-0.7972,-0.7971,-0.797,-0.7964,-0.7962,-0.7986,-0.7986,-0.7986,0,-0.8403,-0.8362,-0.8335,-0.8308,-0.8287,-0.8263,-0.8238,-0.8215,-0.8168,-0.8154,-0.8152,-0.8086,-0.8058,-0.8018,-0.8014,-0.7998,-0.799,-0.7993,-0.7974,-0.7973,-0.7971,-0.7965,-0.7963,-0.7987,-0.7987,-0.7987,-0.7987,0,-0.8375,-0.8347,-0.8332,-0.8289,-0.8267,-0.8241,-0.8209,-0.819,-0.8174,-0.815,-0.8115,-0.8081,-0.8043,-0.8032,-0.8016,-0.7989,-0.7989,-0.7981,-0.7976,-0.7971,-0.7965,-0.7962,-0.7988,-0.7988,-0.7988,-0.7988,0,0,-0.838,-0.8323,-0.8318,-0.8298,-0.8255,-0.8232,-0.8205,-0.8169,-0.8153,-0.8122,-0.8098,-0.8055,-0.8047,-0.8024,-0.8004,-0.7989,-0.7978,-0.7982,-0.7981,-0.7982,-0.7947,-0.7953,-0.7951,-0.7968,-0.7967,-0.7967,-0.795,0,-0.8366,-0.8318,-0.8293,-0.8255,-0.8228,-0.8205,-0.8181,-0.8152,-0.813,-0.8103,-0.8078,-0.8048,-0.804,-0.8027,-0.801,-0.7983,-0.797,-0.7983,-0.7945,-0.7944,-0.7955,-0.7947,-0.7953,-0.7939,-0.7947,-0.7947,-0.7946,0,-0.8343,-0.8314,-0.8274,-0.8234,-0.8222,-0.8201,-0.8166,-0.8141,-0.8108,-0.8092,-0.8068,-0.8048,-0.8019,-0.8017,-0.7975,-0.7985,-0.7968,-0.7952,-0.7951,-0.7945,-0.7944,-0.7941,-0.7934,-0.7931,-0.7942,-0.7942,-0.7943,0,-0.8351,-0.8301,-0.8271,-0.8254,-0.8207,-0.8193,-0.8173,-0.8139,-0.8119,-0.8088,-0.8075,-0.8041,-0.8022,-0.7996,-0.7968,-0.7969,-0.7929,-0.7925,-0.7915,-0.7916,-0.7907,-0.7908,-0.7896,-0.7897,-0.7897,-0.7897,-0.7897,0,-0.8338,-0.8314,-0.8274,-0.8255,-0.8227,-0.8198,-0.8172,-0.8149,-0.812,-0.8096,-0.8073,-0.8051,-0.8016,-0.7989,-0.7967,-0.7936,-0.7927,-0.7914,-0.7908,-0.7916,-0.7917,-0.7903,-0.7903,-0.7896,-0.7896,-0.7896,-0.7896,0,-0.8342,-0.8314,-0.8279,-0.8237,-0.8226,-0.8208,-0.8172,-0.8153,-0.813,-0.81,-0.8091,-0.8055,-0.8022,-0.7992,-0.7948,-0.7933,-0.7902,-0.7894,-0.7913,-0.791,-0.7902,-0.7903,-0.788,-0.7876,-0.788,-0.788,-0.788,0,-0.8335,-0.8316,-0.8273,-0.8256,-0.8236,-0.8209,-0.8188,-0.8159,-0.8139,-0.8099,-0.8085,-0.8051,-0.8022,-0.7971,-0.794,-0.7907,-0.7898,-0.7893,-0.7893,-0.7901,-0.7898,-0.7899,-0.7897,-0.7893,-0.7893,-0.7893,-0.7893,0,-0.8326,-0.8313,-0.8285,-0.8253,-0.823,-0.8202,-0.8174,-0.8161,-0.8127,-0.8105,-0.8072,-0.805,-0.8006,-0.7972,-0.7935,-0.7913,-0.7897,-0.7894,-0.7889,-0.7897,-0.7908,-0.7902,-0.7914,-0.7894,-0.7894,-0.7894,-0.7894,-0.7894,-0.8324,-0.8306,-0.8273,-0.8243,-0.8219,-0.8194,-0.8174,-0.8149,-0.8121,-0.8083,-0.8068,-0.8034,-0.8001,-0.795,-0.7928,-0.7901,-0.7898,-0.7892,-0.789,-0.7889,-0.7891,-0.7913,-0.7894,-0.7894,-0.7894,-0.7894,-0.7894,0,-0.8313,-0.8291,-0.8264,-0.8226,-0.8202,-0.819,-0.8159,-0.8139,-0.8111,-0.8081,-0.8054,-0.8016,-0.7983,-0.7951,-0.7916,-0.7901,-0.7893,-0.7893,-0.7893,-0.7888,-0.7896,-0.7903,-0.79,-0.79,-0.79,-0.79,-0.79,-0.79,-0.8305,-0.8275,-0.8258,-0.8216,-0.8193,-0.8161,-0.8144,-0.812,-0.8097,-0.8056,-0.8029,-0.8008,-0.7977,-0.7941,-0.791,-0.7902,-0.789,-0.7892,-0.7881,-0.7888,-0.7888,-0.7888,-0.7894,-0.789,-0.789,-0.7876,-0.7876,-0.7876]}]]